Content
SEND FEEDBACK

Daily
Averages
Monthly
Summary
United States of America

CHESTERFIELD, MISSOURI


Home > North America > United States > Missouri
Elevation: 559 feet     Latitude: 38 41N     Longitude: 090 31W

WEATHER
 
SELECT A DAY
Number of Records: 203,643;   Date Range: 1/1/95 - 9/16/14
 
SHARE

PRINT THIS DATA

[ ← Previous Day ]
WEATHER ALMANAC - MAY 12, 2013
[ Next Day → ]
[ °C ]   °F
Weather ElementAverageHighLow
Temperature54 °F63 °F (4:51 pm)43 °F (4:51 am)
Dewpoint29.8 °F35.1 °F (6:51 am)25 °F (10:51 am)
Humidity41.7 %66 % (6:51 am)27 % (4:51 pm)
Barometer30.20 in30.24 in (9:51 am)30.16 in (2:51 am)
Wind Speed7.5 mph16.1 mph (3:51 pm)
Wind Gust21.9 mph (10:51 am)
Weather ElementAverage
Visibility10 mi
Wind DirectionW (271.7 °)

Weather ElementTotal
Precipitation---
Heating Degree Days12 (Base 65)
Growing Degree Days3 (Base 50)
Averaged from 23 records on May 12, 2013
WEATHER CONDITIONS BREAKOUT
WIND DIRECTION BREAKOUT
WEATHER BY HOUR - MAY 12, 2013
[ °C ]   °F
Local TimeTemperatureDewpointHumidityBarometerVisibilityWind DirectionWind SpeedGust SpeedPrecipitationEventsConditions
1:51 AM50.0 °F27.0 °F41 %30.17 in10.0 miNW (320°)6.9 mphClear
2:51 AM46.0 °F28.9 °F51 %30.16 in10.0 miWNW (300°)5.8 mphClear
3:51 AM45.0 °F30.0 °F56 %30.17 in10.0 miWNW (290°)5.8 mphClear
4:51 AM43.0 °F32.0 °F65 %30.19 in10.0 miWest (280°)4.6 mphClear
5:51 AM43.0 °F32.0 °F65 %30.20 in10.0 miWNW (300°)3.5 mphClear
6:51 AM46.0 °F35.1 °F66 %30.21 in10.0 miWest (280°)5.8 mphClear
7:51 AM50.0 °F33.1 °F52 %30.22 in10.0 miWNW (300°)6.9 mphClear
8:51 AM53.1 °F32.0 °F45 %30.23 in10.0 miNNW (330°)8.1 mphClear
9:51 AM55.9 °F28.9 °F36 %30.24 in10.0 miNW (310°)8.1 mphPartly Cloudy
10:51 AM57.0 °F25.0 °F29 %30.24 in10.0 miNW (310°)13.8 mph21.9 mphPartly Cloudy
11:51 AM59.0 °F28.0 °F31 %30.24 in10.0 miNW (320°)13.8 mph19.6 mphClear
12:51 PM60.1 °F27.0 °F28 %30.22 in10.0 miWNW (290°)8.1 mphPartly Cloudy
1:51 PM60.1 °F28.9 °F31 %30.22 in10.0 miNW (310°)8.1 mph18.4 mphPartly Cloudy
2:51 PM62.1 °F28.9 °F29 %30.20 in10.0 miWest (280°)13.8 mph19.6 mphPartly Cloudy
3:51 PM62.1 °F28.0 °F28 %30.18 in10.0 miWest (280°)16.1 mph20.7 mphPartly Cloudy
4:51 PM63.0 °F28.0 °F27 %30.17 in10.0 miWNW (290°)15.0 mph21.9 mphScattered Clouds
5:51 PM62.1 °F28.9 °F29 %30.17 in10.0 miWest (280°)5.8 mph16.1 mphScattered Clouds
6:51 PM60.1 °F27.0 °F28 %30.16 in10.0 miNW (310°)10.4 mphScattered Clouds
7:51 PM55.9 °F30.0 °F37 %30.16 in10.0 miWNW (300°)5.8 mphMostly Cloudy
8:51 PM55.9 °F28.9 °F36 %30.17 in10.0 miNNW (330°)3.5 mphScattered Clouds
9:51 PM54.0 °F30.0 °F40 %30.19 in10.0 miCalmPartly Cloudy
10:51 PM51.1 °F33.1 °F50 %30.19 in10.0 miCalmClear
11:51 PM48.0 °F34.0 °F58 %30.19 in10.0 miWSW (240°)3.5 mphClear
Hourly data recorded from KSTL, located miles away from Chesterfield, Missouri







STORIES FROM OUR PARTNERS